Location: Dzierzno
(50.6159°N, 19.2852°E)
Time: 00:24:12
(UTC+00:00)

Cosmos 1072 Rocket - Pass Details

Date: 18 November 2025
Orbit: 947 x 1008 km, 82.9° (Epoch: 05 December)

Event Time Altitude Azimuth Distance (km) Brightness Sun altitude
Rises 16:30:38 0° 175° (S) 3,634 7.6 -15.3°
Reaches altitude 10° 16:33:09 10° 172° (S) 2,684 6.9 -15.6°
Maximum altitude 16:39:10 62° 94° (E) 1,068 4.4 -16.6°
Drops below altitude 10° 16:45:11 10° 15° (NNE) 2,682 6.6 -17.5°
Sets 16:47:42 0° 13° (NNE) 3,631 7.3 -17.9°
